Location: Dackenheim
(49.5215°N, 8.1854°E)
Time: 07:18:20
(UTC+00:00)

USA 229 - Pass Details

Date: 19 May 2025
Orbit: 872 x 1339 km, 63.4° (Epoch: 20 June)

Event Time Altitude Azimuth Distance (km) Brightness Sun altitude
Exits shadow 23:20:50 34° 207° (SSW) 1,528 4.0 -20.5°
Maximum altitude 23:23:45 76° 128° (SE) 1,016 3.4 -20.5°
Drops below altitude 10° 23:30:32 10° 44° (NE) 2,911 6.6 -20.5°
Sets 23:33:21 0° 43° (NE) 3,943 7.4 -20.5°
